Regional Weather Roundup
Issued by NWS

Home | Current Version | Previous Version | Text Only | Print | Product List | Glossary On
Versions: 1 2 3 4 5 6 7 8 9 10 11 12 13 14 15 16 17 18 19 20 21 22 23 24 25 26 27
000
ASCA42 TJSJ 181510
RWRPR
PUERTO RICO/U.S. VIRGIN ISLANDS HOURLY WEATHER ROUNDUP
NATIONAL WEATHER SERVICE SAN JUAN PR
1100 AM AST WED OCT 18 2017

PRZ001>002-007>008-010-181600-
PUERTO RICO

CITY           SKY/WX    TMP DP  RH WIND       PRES   REMARKS
SAN JUAN LMM   MOSUNNY   88  79  74 E16G22    30.04S HX 102
PONCE          HVY RAIN  77  73  88 E18G29    30.06R VSB 1
AGUADILLA      CLOUDY    84  75  74 E8        30.04S HX  92
$$

VIZ001>002-181600-
U.S. VIRGIN ISLANDS

CITY           SKY/WX    TMP DP  RH WIND       PRES   REMARKS
CHARLOTTE AMA    N/A     86  79  79 SE17G28   30.04F HX  99
CHRISTIANSTED  PTSUNNY   88  77  70 SE14      30.04  HAZE    HX 100
$$

HOURLY WEATHER ROUNDUP FOR THE NEWS MEDIA

CITY           SKY/WX    TMP DP  RH WIND       PRES   REMARKS
NEW YORK       MOSUNNY   63  41  44 VRB5      30.33S
NEWARK         MOSUNNY   61  41  47 W5        30.32F
CHICAGO        SUNNY     58  42  55 S12       30.15F
HARTFORD       SUNNY     64  44  48 VRB7      30.27S
BOSTON         MOSUNNY   64  43  46 W13       30.26S
DALLAS         MOSUNNY   63  46  54 S9        30.17S
PHILADELPHIA   SUNNY     61  42  49 SW7       30.36F
LOS ANGELES    MOSUNNY   70  62  76 SE3       29.93R
WASHINGTON DC  SUNNY     59  44  57 CALM      30.40S



USA.gov is the U.S. government's official web portal to all federal, state and local government web resources and services.